RBB15J LEBL-EDDK

Flight info

Callsign RBB15J
Flight time N/A
Altitude 36000
Route OLOXO DCT OKABI DCT TOU DCT ADABI DCT BOKNO DCT DIBES DCT VIQAQ DCT TSU UM163 LEQOS DCT CTL DCT ARDEN DCT KOMOB DCT IBESA T860 ERUKI ERUKI1F
Aircraft A320/M-SDE3FGHIRWY/LB1

Departure

Time N/A
Airport Josep Tarradellas Barcelona-El Prat Airport (LEBL)

Arrival

Time 2026-04-22 19:46
Airport Cologne Bonn Airport (EDDK)
Time Latitude Longitude Altitude Speed Heading
2026-04-22 18:10 42.74670 1.46254 33091 ft 427 kts 351°
2026-04-22 18:10 42.77608 1.45783 33417 ft 425 kts 351°
2026-04-22 18:10 42.80533 1.45314 33704 ft 424 kts 351°
2026-04-22 18:10 42.83471 1.44843 33981 ft 423 kts 351°
2026-04-22 18:11 42.86384 1.44369 34248 ft 422 kts 351°
2026-04-22 18:11 42.89299 1.43893 34523 ft 421 kts 351°
2026-04-22 18:11 42.92206 1.43422 34773 ft 420 kts 351°
2026-04-22 18:11 42.95113 1.42956 35013 ft 420 kts 351°
2026-04-22 18:12 42.98007 1.42493 35235 ft 419 kts 351°
2026-04-22 18:12 43.00899 1.42030 35468 ft 419 kts 351°
2026-04-22 18:12 43.02817 1.41721 35621 ft 419 kts 351°
2026-04-22 18:12 43.06687 1.41088 35892 ft 418 kts 351°
2026-04-22 18:13 43.09576 1.40614 36055 ft 419 kts 351°
2026-04-22 18:13 43.15375 1.39667 36089 ft 420 kts 351°
2026-04-22 18:14 43.20975 1.38753 36087 ft 420 kts 351°
2026-04-22 18:14 43.26792 1.37801 36087 ft 421 kts 350°
2026-04-22 18:15 43.32611 1.36847 36083 ft 421 kts 350°
2026-04-22 18:15 43.38436 1.35893 36085 ft 421 kts 350°
2026-04-22 18:16 43.44256 1.34940 36090 ft 421 kts 350°
2026-04-22 18:16 43.50078 1.33971 36089 ft 421 kts 350°
2026-04-22 18:17 43.55888 1.32998 36086 ft 421 kts 350°
2026-04-22 18:17 43.61708 1.32035 36063 ft 421 kts 350°
2026-04-22 18:18 43.67482 1.31076 36070 ft 421 kts 349°
2026-04-22 18:18 43.73250 1.29846 36068 ft 419 kts 346°
2026-04-22 18:19 43.78969 1.28285 36066 ft 418 kts 345°
2026-04-22 18:19 43.84678 1.26698 36069 ft 418 kts 346°
2026-04-22 18:20 43.90393 1.25196 36063 ft 419 kts 346°
2026-04-22 18:20 43.96130 1.23724 36059 ft 419 kts 346°
2026-04-22 18:21 44.01856 1.22255 36053 ft 418 kts 346°
2026-04-22 18:21 44.07581 1.20769 36055 ft 418 kts 346°
2026-04-22 18:22 44.13295 1.19270 36045 ft 418 kts 346°
2026-04-22 18:22 44.19012 1.17770 36040 ft 418 kts 346°
2026-04-22 18:23 44.24741 1.16268 36042 ft 418 kts 346°
2026-04-22 18:23 44.30446 1.14774 36037 ft 418 kts 346°
2026-04-22 18:24 44.38982 1.12533 36016 ft 418 kts 346°
2026-04-22 18:25 44.47587 1.10262 36023 ft 418 kts 345°
2026-04-22 18:25 44.53303 1.08752 36021 ft 418 kts 346°
2026-04-22 18:26 44.61835 1.06487 36024 ft 418 kts 345°
2026-04-22 18:26 44.67550 1.04972 36018 ft 418 kts 345°
2026-04-22 18:27 44.78291 1.02114 36010 ft 418 kts 345°
2026-04-22 18:28 44.84007 1.00587 36009 ft 418 kts 345°
2026-04-22 18:28 44.89726 0.99054 36011 ft 418 kts 345°
2026-04-22 18:29 44.95436 0.97523 36008 ft 418 kts 345°
2026-04-22 18:29 45.01152 0.95991 36012 ft 418 kts 345°
2026-04-22 18:30 45.09719 0.93673 36000 ft 418 kts 345°
2026-04-22 18:31 45.15433 0.92128 35998 ft 418 kts 345°
2026-04-22 18:31 45.21156 0.90584 36015 ft 418 kts 345°
2026-04-22 18:32 45.26870 0.89035 36010 ft 418 kts 345°
2026-04-22 18:32 45.32589 0.87473 36006 ft 418 kts 345°
2026-04-22 18:33 45.38274 0.85925 36025 ft 418 kts 345°
2026-04-22 18:33 45.44029 0.84354 36025 ft 418 kts 345°
2026-04-22 18:34 45.49706 0.82801 36036 ft 418 kts 345°
2026-04-22 18:34 45.55422 0.81239 36038 ft 418 kts 345°
2026-04-22 18:35 45.61142 0.79669 36039 ft 418 kts 345°
2026-04-22 18:35 45.66856 0.78091 36030 ft 418 kts 345°
2026-04-22 18:36 45.72574 0.76512 36030 ft 419 kts 345°
2026-04-22 18:36 45.78302 0.74929 36039 ft 419 kts 345°
2026-04-22 18:37 45.84027 0.73345 36047 ft 419 kts 345°
2026-04-22 18:37 45.89760 0.71759 36047 ft 420 kts 345°
2026-04-22 18:38 45.95493 0.70167 36048 ft 420 kts 345°
2026-04-22 18:38 46.01230 0.68571 36063 ft 420 kts 345°
2026-04-22 18:39 46.10334 0.66017 36077 ft 420 kts 345°
2026-04-22 18:39 46.16073 0.64407 36077 ft 420 kts 345°
2026-04-22 18:40 46.21808 0.62807 36081 ft 420 kts 345°
2026-04-22 18:40 46.27539 0.61191 36087 ft 420 kts 344°
2026-04-22 18:41 46.33269 0.59572 36088 ft 419 kts 345°
2026-04-22 18:41 46.39002 0.57963 36093 ft 419 kts 345°
2026-04-22 18:42 46.44729 0.56342 36093 ft 419 kts 345°
2026-04-22 18:42 46.47601 0.55914 36090 ft 426 kts 358°
2026-04-22 18:42 46.50547 0.56674 36085 ft 437 kts 14°
2026-04-22 18:43 46.56164 0.60239 36077 ft 441 kts 19°
2026-04-22 18:43 46.61763 0.63931 36083 ft 442 kts 19°
2026-04-22 18:44 46.67364 0.67622 36087 ft 442 kts 19°
2026-04-22 18:44 46.72973 0.71325 36090 ft 442 kts 19°
2026-04-22 18:45 46.78583 0.75016 36096 ft 442 kts 19°
2026-04-22 18:45 46.84195 0.78714 36099 ft 442 kts 19°
2026-04-22 18:46 46.88857 0.81784 36118 ft 442 kts 19°
2026-04-22 18:46 46.94462 0.85485 36126 ft 441 kts 19°
2026-04-22 18:47 47.00047 0.89196 36138 ft 440 kts 19°
2026-04-22 18:47 47.05621 0.92921 36137 ft 440 kts 19°
2026-04-22 18:48 47.11187 0.96630 36137 ft 439 kts 19°
2026-04-22 18:48 47.16754 1.00348 36141 ft 439 kts 19°
2026-04-22 18:49 47.22315 1.04071 36145 ft 439 kts 19°
2026-04-22 18:49 47.27871 1.07809 36143 ft 439 kts 19°
2026-04-22 18:50 47.33391 1.11525 36142 ft 439 kts 19°
2026-04-22 18:50 47.38976 1.15289 36158 ft 439 kts 19°
2026-04-22 18:51 47.44482 1.19025 36160 ft 438 kts 19°
2026-04-22 18:51 47.50026 1.22796 36160 ft 438 kts 19°
2026-04-22 18:52 47.55571 1.26570 36180 ft 438 kts 19°
2026-04-22 18:52 47.61108 1.30339 36176 ft 437 kts 19°
2026-04-22 18:53 47.66634 1.34102 36181 ft 437 kts 19°
2026-04-22 18:53 47.72145 1.37877 36185 ft 436 kts 19°
2026-04-22 18:54 47.77655 1.41659 36183 ft 436 kts 19°
2026-04-22 18:54 47.83171 1.45453 36202 ft 436 kts 19°
2026-04-22 18:55 47.88671 1.49244 36204 ft 436 kts 19°
2026-04-22 18:55 47.94156 1.53042 36202 ft 436 kts 19°
2026-04-22 18:56 47.99663 1.56856 36204 ft 436 kts 19°
2026-04-22 18:56 48.05163 1.60668 36210 ft 436 kts 19°
2026-04-22 18:57 48.10952 1.64700 36204 ft 436 kts 19°
2026-04-22 18:57 48.16445 1.68535 36201 ft 436 kts 19°
2026-04-22 18:58 48.21942 1.72368 36240 ft 435 kts 19°
2026-04-22 18:58 48.27422 1.76209 36229 ft 434 kts 19°
2026-04-22 18:59 48.32880 1.80051 36229 ft 432 kts 19°
2026-04-22 18:59 48.38323 1.83889 36231 ft 432 kts 19°
2026-04-22 19:00 48.43760 1.87716 36243 ft 431 kts 19°
2026-04-22 19:00 48.49187 1.91551 36247 ft 431 kts 19°
2026-04-22 19:01 48.54604 1.95397 36080 ft 429 kts 19°
2026-04-22 19:01 48.57308 1.97324 35833 ft 429 kts 19°
2026-04-22 19:01 48.59999 1.99244 35581 ft 429 kts 19°
2026-04-22 19:02 48.62698 2.01169 35333 ft 428 kts 19°
2026-04-22 19:02 48.65377 2.03152 35096 ft 431 kts 25°
2026-04-22 19:02 48.67771 2.05964 34836 ft 444 kts 40°
2026-04-22 19:02 48.69613 2.09789 34483 ft 457 kts 53°
2026-04-22 19:03 48.71171 2.13921 34228 ft 459 kts 54°
2026-04-22 19:03 48.72728 2.18143 34237 ft 460 kts 54°
2026-04-22 19:03 48.75835 2.26684 34220 ft 460 kts 54°
2026-04-22 19:04 48.78935 2.35169 34220 ft 460 kts 54°
2026-04-22 19:04 48.82028 2.43579 34221 ft 459 kts 53°
2026-04-22 19:05 48.84899 2.51065 34244 ft 455 kts 50°
2026-04-22 19:05 48.88403 2.58975 34242 ft 453 kts 48°
2026-04-22 19:06 48.91988 2.66848 34273 ft 452 kts 48°
2026-04-22 19:07 48.97316 2.78657 34271 ft 450 kts 49°
2026-04-22 19:07 49.00827 2.86552 34266 ft 450 kts 49°
2026-04-22 19:08 49.04322 2.94457 34269 ft 449 kts 49°
2026-04-22 19:08 49.07809 3.02358 34282 ft 448 kts 49°
2026-04-22 19:09 49.11292 3.10241 34299 ft 447 kts 49°
2026-04-22 19:09 49.14173 3.16766 34277 ft 445 kts 49°
2026-04-22 19:10 49.18210 3.25941 34273 ft 445 kts 49°
2026-04-22 19:10 49.21653 3.33799 34274 ft 444 kts 49°
2026-04-22 19:11 49.25063 3.41616 34262 ft 444 kts 49°
2026-04-22 19:11 49.28486 3.49504 34271 ft 444 kts 50°
2026-04-22 19:11 49.30198 3.53456 34045 ft 445 kts 50°
2026-04-22 19:12 49.31911 3.57411 33810 ft 445 kts 50°
2026-04-22 19:12 49.33622 3.61360 33538 ft 445 kts 51°
2026-04-22 19:12 49.35335 3.65319 33268 ft 445 kts 51°
2026-04-22 19:12 49.37045 3.69277 33002 ft 446 kts 51°
2026-04-22 19:13 49.38755 3.73249 32738 ft 446 kts 51°
2026-04-22 19:13 49.40464 3.77225 32484 ft 446 kts 51°
2026-04-22 19:13 49.42174 3.81206 32263 ft 447 kts 51°
2026-04-22 19:14 49.45593 3.89179 32277 ft 447 kts 51°
2026-04-22 19:14 49.48988 3.97116 32280 ft 446 kts 52°
2026-04-22 19:15 49.51835 4.03789 32281 ft 445 kts 52°
2026-04-22 19:15 49.55790 4.13050 32288 ft 445 kts 51°
2026-04-22 19:16 49.59260 4.20949 32287 ft 445 kts 51°
2026-04-22 19:16 49.62756 4.28806 32293 ft 445 kts 51°
2026-04-22 19:17 49.69583 4.44330 32291 ft 443 kts 52°
2026-04-22 19:18 49.73002 4.52177 32324 ft 442 kts 52°
2026-04-22 19:18 49.76437 4.60044 32299 ft 441 kts 52°
2026-04-22 19:19 49.79862 4.67921 32305 ft 441 kts 52°
2026-04-22 19:19 49.83280 4.75808 32305 ft 441 kts 52°
2026-04-22 19:20 49.86694 4.83716 32305 ft 441 kts 52°
2026-04-22 19:20 49.90097 4.91613 32314 ft 440 kts 52°
2026-04-22 19:21 49.93491 4.99502 32130 ft 440 kts 52°
2026-04-22 19:21 49.95185 5.03451 31895 ft 439 kts 53°
2026-04-22 19:21 49.96874 5.07405 31640 ft 438 kts 53°
2026-04-22 19:21 49.98562 5.11360 31391 ft 438 kts 53°
2026-04-22 19:22 50.00242 5.15305 31143 ft 438 kts 53°
2026-04-22 19:22 50.01924 5.19259 30896 ft 438 kts 53°
2026-04-22 19:22 50.03607 5.23218 30659 ft 438 kts 53°
2026-04-22 19:22 50.05286 5.27164 30417 ft 438 kts 53°
2026-04-22 19:23 50.06957 5.31100 30132 ft 432 kts 53°
2026-04-22 19:23 50.08598 5.34980 29842 ft 426 kts 53°
2026-04-22 19:23 50.10221 5.38822 29555 ft 422 kts 53°
2026-04-22 19:23 50.11827 5.42633 29224 ft 420 kts 54°
2026-04-22 19:24 50.13424 5.46429 28654 ft 416 kts 54°
2026-04-22 19:24 50.14998 5.50172 28136 ft 411 kts 54°
2026-04-22 19:24 50.16559 5.53879 27600 ft 407 kts 54°
2026-04-22 19:24 50.18106 5.57557 27073 ft 403 kts 54°
2026-04-22 19:25 50.19634 5.61203 26567 ft 400 kts 54°
2026-04-22 19:25 50.21132 5.64781 26064 ft 396 kts 55°
2026-04-22 19:25 50.22146 5.67209 25725 ft 394 kts 55°
2026-04-22 19:25 50.23633 5.70776 25235 ft 391 kts 55°
2026-04-22 19:26 50.25588 5.75466 24602 ft 386 kts 55°
2026-04-22 19:26 50.26574 5.77829 24274 ft 384 kts 55°
2026-04-22 19:26 50.28027 5.81310 23768 ft 381 kts 55°
2026-04-22 19:26 50.29467 5.84773 23218 ft 377 kts 55°
2026-04-22 19:27 50.30892 5.88205 22806 ft 374 kts 55°
2026-04-22 19:27 50.32302 5.91606 22399 ft 372 kts 56°
2026-04-22 19:27 50.33705 5.94996 21996 ft 369 kts 56°
2026-04-22 19:27 50.35098 5.98358 21597 ft 367 kts 56°
2026-04-22 19:28 50.36480 6.01705 21232 ft 364 kts 56°
2026-04-22 19:28 50.37849 6.05030 20842 ft 362 kts 56°
2026-04-22 19:28 50.39211 6.08340 20448 ft 360 kts 56°
2026-04-22 19:28 50.40563 6.11630 20071 ft 358 kts 56°
2026-04-22 19:29 50.41909 6.14906 19705 ft 356 kts 56°
2026-04-22 19:29 50.43245 6.18163 19385 ft 354 kts 56°
2026-04-22 19:29 50.44554 6.21357 19323 ft 353 kts 56°
2026-04-22 19:29 50.45883 6.24605 19337 ft 354 kts 56°
2026-04-22 19:30 50.46775 6.26792 19336 ft 354 kts 56°
2026-04-22 19:30 50.48532 6.31097 19331 ft 354 kts 56°
2026-04-22 19:30 50.49749 6.34465 19329 ft 355 kts 64°
2026-04-22 19:30 50.50722 6.38039 19331 ft 356 kts 65°
2026-04-22 19:31 50.51692 6.41607 19334 ft 356 kts 65°
2026-04-22 19:31 50.52667 6.45180 19336 ft 356 kts 65°
2026-04-22 19:31 50.53644 6.48754 19338 ft 356 kts 65°
2026-04-22 19:31 50.54623 6.52332 19348 ft 356 kts 65°
2026-04-22 19:32 50.55600 6.55906 19336 ft 353 kts 65°
2026-04-22 19:32 50.56542 6.59383 19271 ft 338 kts 65°
2026-04-22 19:32 50.57442 6.62723 19147 ft 326 kts 65°
2026-04-22 19:32 50.58311 6.65942 19026 ft 314 kts 65°
2026-04-22 19:33 50.59254 6.68980 18838 ft 303 kts 56°
2026-04-22 19:33 50.60551 6.71521 18220 ft 296 kts 43°
2026-04-22 19:33 50.62182 6.73478 17512 ft 293 kts 31°
2026-04-22 19:33 50.64037 6.74788 16846 ft 292 kts 19°
2026-04-22 19:34 50.66026 6.75411 16191 ft 293 kts
2026-04-22 19:34 50.68062 6.75500 15539 ft 292 kts
2026-04-22 19:34 50.70082 6.75566 14923 ft 289 kts
2026-04-22 19:34 50.72088 6.75638 14324 ft 287 kts
2026-04-22 19:35 50.74080 6.75712 13677 ft 285 kts
2026-04-22 19:35 50.76029 6.75784 13020 ft 283 kts
2026-04-22 19:35 50.78017 6.75859 12358 ft 281 kts
2026-04-22 19:35 50.79971 6.75934 11711 ft 280 kts
2026-04-22 19:36 50.81912 6.75995 11408 ft 280 kts
2026-04-22 19:36 50.83816 6.75334 11095 ft 283 kts 337°
2026-04-22 19:36 50.85388 6.73455 10453 ft 287 kts 316°
2026-04-22 19:36 50.86685 6.71159 9758 ft 288 kts 314°
2026-04-22 19:37 50.87971 6.68791 9089 ft 286 kts 313°
2026-04-22 19:37 50.89286 6.66368 8605 ft 286 kts 313°
2026-04-22 19:37 50.90562 6.64024 8238 ft 283 kts 313°
2026-04-22 19:37 50.91845 6.61671 7851 ft 281 kts 313°
2026-04-22 19:38 50.93154 6.59380 7456 ft 278 kts 322°
2026-04-22 19:38 50.94827 6.58014 7346 ft 271 kts 351°
2026-04-22 19:38 50.96680 6.58083 7355 ft 267 kts 18°
2026-04-22 19:38 50.98269 6.59523 7354 ft 265 kts 46°
2026-04-22 19:39 50.99313 6.61908 7270 ft 263 kts 61°
2026-04-22 19:39 51.00160 6.64478 6851 ft 262 kts 63°
2026-04-22 19:39 51.00938 6.67093 6404 ft 262 kts 72°
2026-04-22 19:39 51.01269 6.69921 5978 ft 260 kts 82°
2026-04-22 19:40 51.01480 6.72779 5533 ft 259 kts 83°
2026-04-22 19:40 51.01685 6.75615 5133 ft 258 kts 83°
2026-04-22 19:40 51.01893 6.78443 4696 ft 257 kts 83°
2026-04-22 19:40 51.02103 6.81251 4271 ft 255 kts 83°
2026-04-22 19:41 51.02315 6.84028 3860 ft 253 kts 83°
2026-04-22 19:41 51.02434 6.86795 3410 ft 250 kts 97°
2026-04-22 19:41 51.01931 6.89372 3242 ft 238 kts 112°
2026-04-22 19:41 51.01287 6.91723 3118 ft 226 kts 113°
2026-04-22 19:42 51.00652 6.93958 3023 ft 220 kts 114°
2026-04-22 19:42 50.99763 6.95916 3022 ft 221 kts 135°
2026-04-22 19:42 50.98644 6.97519 2978 ft 214 kts 136°
2026-04-22 19:42 50.97544 6.99087 2768 ft 204 kts 135°
2026-04-22 19:43 50.95553 7.01980 2306 ft 185 kts 134°
2026-04-22 19:43 50.94619 7.03342 2026 ft 179 kts 133°
2026-04-22 19:43 50.93725 7.04642 1768 ft 167 kts 133°
2026-04-22 19:44 50.92915 7.05820 1576 ft 149 kts 133°
2026-04-22 19:44 50.92180 7.06890 1366 ft 139 kts 132°
2026-04-22 19:44 50.91479 7.07912 1172 ft 136 kts 133°
2026-04-22 19:44 50.90788 7.08919 992 ft 137 kts 134°
2026-04-22 19:45 50.90077 7.09956 820 ft 138 kts 135°
2026-04-22 19:45 50.89380 7.10973 668 ft 136 kts 135°
2026-04-22 19:45 50.88679 7.11988 457 ft 137 kts 134°
2026-04-22 19:45 50.87986 7.12993 261 ft 133 kts 134°
2026-04-22 19:46 50.87410 7.13835 241 ft 78 kts 137°
2026-04-22 19:46 50.87126 7.14250 250 ft 48 kts 138°
2026-04-22 19:46 50.86984 7.14450 256 ft 28 kts 137°
2026-04-22 19:46 50.86946 7.14503 258 ft 17 kts 139°
2026-04-22 19:47 50.86889 7.14500 260 ft 8 kts 218°
2026-04-22 19:47 50.86877 7.14411 260 ft 12 kts 278°
2026-04-22 19:47 50.86891 7.14279 257 ft 13 kts 279°
2026-04-22 19:47 50.86916 7.14106 255 ft 17 kts 296°
2026-04-22 19:48 50.87009 7.13953 246 ft 23 kts 317°
2026-04-22 19:48 50.87140 7.13765 240 ft 26 kts 317°
2026-04-22 19:48 50.87280 7.13562 237 ft 25 kts 317°
2026-04-22 19:48 50.87385 7.13409 232 ft 18 kts 317°
2026-04-22 19:49 50.87469 7.13288 233 ft 16 kts 317°
2026-04-22 19:49 50.87536 7.13192 233 ft 11 kts 317°
2026-04-22 19:49 50.87587 7.13118 233 ft 10 kts 317°
2026-04-22 19:49 50.87633 7.13051 233 ft 8 kts 317°
2026-04-22 19:50 50.87676 7.12988 233 ft 11 kts 317°
2026-04-22 19:50 50.87745 7.12887 233 ft 14 kts 317°
2026-04-22 19:50 50.87788 7.12808 232 ft 7 kts 282°
2026-04-22 19:50 50.87785 7.12733 232 ft 7 kts 266°
2026-04-22 19:51 50.87794 7.12665 234 ft 6 kts 295°
2026-04-22 19:51 50.87821 7.12623 232 ft 5 kts 329°
2026-04-22 19:51 50.87852 7.12610 232 ft 4 kts 352°
2026-04-22 19:51 50.87901 7.12605 232 ft 11 kts 351°
2026-04-22 19:52 50.87967 7.12544 232 ft 11 kts 319°
2026-04-22 19:52 50.88024 7.12461 232 ft 12 kts 317°
2026-04-22 19:52 50.88077 7.12370 233 ft 11 kts 305°
2026-04-22 19:52 50.88106 7.12269 235 ft 10 kts 290°
2026-04-22 19:53 50.88138 7.12184 232 ft 9 kts 305°
2026-04-22 19:53 50.88179 7.12133 232 ft 7 kts 354°
2026-04-22 19:53 50.88219 7.12166 233 ft 7 kts 38°
2026-04-22 19:53 50.88247 7.12198 233 ft 1 kts 36°
2026-04-22 19:54 50.88247 7.12199 233 ft 0 kts 36°